Location: *
(50.0228°S, 177.2688°W)
Time: 18:42:52
(UTC+00:00)

Cosmos 1892 Rocket - Pass Details

Date: 07 April 2020
Orbit: 605 x 634 km, 82.5° (Epoch: 03 June)

Event Time Altitude Azimuth Distance (km) Brightness Sun altitude
Rises 07:13:12 0° 344° (NNW) 2,903 7.1 -18.5°
Reaches altitude 10° 07:15:26 10° 341° (NNW) 2,000 6.2 -18.9°
Maximum altitude 07:19:51 67° 258° (WSW) 686 3.9 -19.5°
Drops below altitude 10° 07:24:18 10° 175° (S) 2,011 6.3 -20.2°
Sets 07:26:33 0° 171° (S) 2,920 7.1 -20.6°
